INTELSAT 805 (IS-805) (25371 NORAD) Tracking and Keplerian Element Data

This shows tracking and keplerian element data for the satellite.

Feedback or suggestion? Click here.




ElementValue
Catalog25371
NameINTELSAT 805 (IS-805)
Epoch Orbit7508
Epoch Day349.45188337
Epoch Year2018
RAAN91.8328
Inclination1.1959
Eccentricity0.0003287
Argument of Perigee165.2967
Mean Anonmoly158.7071
Mean Motion1.00271898
Decay Rate-1.8E-07
L11 25371U 98037A 18349.45188337 -.00000018 00000-0 00000+0 0 9998
L22 25371 1.1959 91.8328 0003287 165.2967 158.7071 1.00271898 75087

Live tracking and technical data element details for INTELSAT 805 (IS-805) (NORAD 25371). INTELSAT 805 (IS-805) can be tracked NOW for your location showing map with azimuth and elevation plus other details from your city location.

Track the satellite on the map from your city or location and see movement details for azimuth, elevation, latitude, longitude, range, height, and movement on the map or in text.







IsCatalogInMostPopularTable: catalog: 25371, numindb: 58
Update: records affected: 1



GetName: 25371 INTELSAT 805 (IS-805)

Hit Count: updated at: Sun, 16 Dec 2018 09:57:32 GMT